tititudorancea.com
Station Historical Data
Daily Summary for September 27, 2018 Units:  Metric    English   Both
« Previous Day
Next Day »
Daily Weekly Monthly Yearly Custom
  High: Low: Average:
Temperature: -17.8 °C 5.7 °C 13.3 °C
Dew Point: -17.8 °C -0.1 °C 3.7 °C
Humidity: Humidity % 29 % 55 %
Wind Speed: 0 km/h 0 km/h 12.6 km/h
Wind Gust: 0 km/h - -
Wind:- - WNW
Pressure: 0 hPa 1010.4 hPa -
Precipitation: 0 mm    
Historical Graphs
 
 
Ararat weather Find more about Weather in Ararat, AU


 



 


Tabular Data for September 27, 2018
Time Temperature Dew Point Pressure Wind Wind Speed Wind Gust Humidity Rainfall Rate (Hourly)
-17.8 °C -17.8 °C 0 hPa Calm     Humidity % 0 mm
00:04 9.9 °C 0.5 °C 1016.5 hPa North 3.7 km/h 2.9 km/h 52 % 0 mm
00:09 9.8 °C 0.1 °C 1016.5 hPa North 3.7 km/h 2.3 km/h 51 % 0 mm
00:14 9.7 °C 0.1 °C 1016.5 hPa Calm     51 % 0 mm
00:19 9.8 °C 0.1 °C 1016.5 hPa North 1.9 km/h 0.8 km/h 51 % 0 mm
00:24 9.8 °C 0.2 °C 1016.5 hPa Calm     51 % 0 mm
00:29 9.8 °C 0.4 °C 1016.5 hPa North 3.7 km/h 1.9 km/h 52 % 0 mm
00:34 9.8 °C 0.4 °C 1016.5 hPa North 5.6 km/h 3.1 km/h 52 % 0 mm
00:39 9.8 °C 0.4 °C 1016.5 hPa North 3.7 km/h 1.6 km/h 52 % 0 mm
00:44 9.9 °C 0.5 °C 1016.5 hPa North 5.6 km/h 1.4 km/h 52 % 0 mm
00:49 9.9 °C 0.6 °C 1016.5 hPa North 3.7 km/h 1.9 km/h 52 % 0 mm
00:54 10.1 °C 0.4 °C 1016.5 hPa North 3.7 km/h 1 km/h 51 % 0 mm
00:59 10.2 °C 0.4 °C 1016.1 hPa North 5.6 km/h 2.3 km/h 51 % 0 mm
01:04 10.2 °C 0.4 °C 1016.1 hPa North 3.7 km/h 1.6 km/h 51 % 0 mm
01:09 10.1 °C 0.4 °C 1016.1 hPa North 3.2 km/h 1 km/h 51 % 0 mm
01:14 10.1 °C 0.4 °C 1015.8 hPa North 5.6 km/h 2.6 km/h 51 % 0 mm
01:19 9.9 °C 0.6 °C 1015.8 hPa North 5.6 km/h 4.3 km/h 52 % 0 mm
01:24 9.9 °C 0.5 °C 1015.8 hPa North 5.6 km/h 5.5 km/h 52 % 0 mm
01:29 9.7 °C 0.6 °C 1015.5 hPa North 7.4 km/h 5.5 km/h 53 % 0 mm
01:34 9.6 °C 0.7 °C 1015.5 hPa North 7.4 km/h 5.6 km/h 54 % 0 mm
01:39 9.6 °C 0.7 °C 1015.1 hPa North 5.6 km/h 5.1 km/h 54 % 0 mm
01:44 9.7 °C 0.6 °C 1015.1 hPa North 5.6 km/h 5 km/h 53 % 0 mm
01:49 9.8 °C 0.7 °C 1014.8 hPa North 9.3 km/h 6.1 km/h 53 % 0 mm
01:54 10.1 °C 0.6 °C 1014.8 hPa North 11.1 km/h 6.8 km/h 52 % 0 mm
01:59 10.3 °C 0.8 °C 1014.4 hPa North 11.1 km/h 7.2 km/h 52 % 0 mm
02:04 10.4 °C 1 °C 1014.4 hPa North 9.7 km/h 5 km/h 52 % 0 mm
02:09 10.5 °C 1.1 °C 1014.4 hPa North 9.3 km/h 7.4 km/h 52 % 0 mm
02:14 10.6 °C 1.2 °C 1014.8 hPa North 9.3 km/h 7.1 km/h 52 % 0 mm
02:19 10.7 °C 1.2 °C 1014.4 hPa North 11.1 km/h 6.1 km/h 52 % 0 mm
02:24 10.4 °C 1 °C 1014.4 hPa North 6.4 km/h 4 km/h 52 % 0 mm
02:29 10.4 °C 0.9 °C 1014.4 hPa North 5.6 km/h 2.7 km/h 52 % 0 mm
02:34 10.3 °C 0.8 °C 1014.4 hPa North 1.9 km/h   52 % 0 mm
02:39 10.2 °C 0.8 °C 1014.4 hPa North 3.7 km/h 2.1 km/h 52 % 0 mm
02:44 10.1 °C 0.9 °C 1014.1 hPa North 3.7 km/h 2.4 km/h 53 % 0 mm
02:49 9.9 °C 1.1 °C 1014.1 hPa North 5.6 km/h 2.4 km/h 54 % 0 mm
02:54 9.8 °C 1.2 °C 1014.1 hPa North 5.6 km/h 3.9 km/h 55 % 0 mm
02:59 9.6 °C 1 °C 1014.1 hPa North 5.6 km/h 2.3 km/h 55 % 0 mm
03:04 9.5 °C 1.2 °C 1014.1 hPa North 5.6 km/h 3.2 km/h 56 % 0 mm
03:09 9.5 °C 1.2 °C 1014.1 hPa North 4.8 km/h 3.1 km/h 56 % 0 mm
03:14 9.5 °C 1.2 °C 1014.1 hPa North 3.7 km/h 1.1 km/h 56 % 0 mm
03:19 9.3 °C 1 °C 1014.1 hPa North 1.9 km/h 0.5 km/h 56 % 0 mm
03:24 9.1 °C 1.1 °C 1014.1 hPa North 3.7 km/h 1.4 km/h 57 % 0 mm
03:29 9 °C 0.9 °C 1013.8 hPa North 5.6 km/h 4.5 km/h 57 % 0 mm
03:34 9.1 °C 0.8 °C 1013.8 hPa North 14.8 km/h 5.6 km/h 56 % 0 mm
03:39 9.7 °C 0.6 °C 1013.8 hPa North 12.9 km/h 8.9 km/h 53 % 0 mm
03:44 10.4 °C 0.4 °C 1013.8 hPa North 13 km/h 7.6 km/h 50 % 0 mm
03:49 10.7 °C 0.4 °C 1013.8 hPa North 13 km/h 7.4 km/h 49 % 0 mm
03:54 11 °C 0.4 °C 1013.8 hPa North 14.8 km/h 6.6 km/h 48 % 0 mm
03:59 11.1 °C 0.4 °C 1013.8 hPa North 11.1 km/h 9 km/h 48 % 0 mm
04:04 11.1 °C 0.2 °C 1013.8 hPa North 18.5 km/h 8.4 km/h 47 % 0 mm
04:09 11.2 °C 0.3 °C 1013.8 hPa North 18.5 km/h 8.5 km/h 47 % 0 mm
04:14 11.2 °C 0 °C 1013.8 hPa NNW 18.5 km/h 11.7 km/h 46 % 0 mm
04:19 11.3 °C 0.3 °C 1013.4 hPa NNW 16.7 km/h 8 km/h 47 % 0 mm
04:24 11.3 °C 0.1 °C 1013.8 hPa NNW 11.3 km/h 7.1 km/h 46 % 0 mm
04:29 11.3 °C 0.1 °C 1013.8 hPa NNW 11.1 km/h 7.9 km/h 46 % 0 mm
04:34 11.3 °C 0.1 °C 1013.8 hPa NNW 13 km/h 6.6 km/h 46 % 0 mm
04:39 11.2 °C -0.1 °C 1013.8 hPa NNW 9.3 km/h 6.9 km/h 46 % 0 mm
04:44 11.1 °C 0.2 °C 1013.8 hPa NNW 13 km/h 7.9 km/h 47 % 0 mm
04:49 11 °C 0.1 °C 1013.4 hPa North 7.4 km/h 5.6 km/h 47 % 0 mm
04:54 11.1 °C -0.1 °C 1013.8 hPa NNW 9.3 km/h 7.7 km/h 46 % 0 mm
04:59 11.2 °C -0.1 °C 1013.8 hPa NNW 9.3 km/h 7.1 km/h 46 % 0 mm
05:04 11.2 °C 0 °C 1013.8 hPa NNW 14.8 km/h 8.5 km/h 46 % 0 mm
05:09 11.3 °C 0.1 °C 1013.8 hPa NNW 11.1 km/h 6.4 km/h 46 % 0 mm
05:14 11.2 °C -0.1 °C 1013.8 hPa NNW 9.3 km/h 5.3 km/h 46 % 0 mm
05:19 11.2 °C -0.1 °C 1013.8 hPa North 11.1 km/h 6.8 km/h 46 % 0 mm
05:24 11.2 °C 0.3 °C 1013.8 hPa NNW 11.1 km/h 7.6 km/h 47 % 0 mm
05:29 11.2 °C 0.3 °C 1013.8 hPa NNW 13 km/h 7.1 km/h 47 % 0 mm
05:34 11.2 °C 0.3 °C 1013.8 hPa NNW 16.7 km/h 9.2 km/h 47 % 0 mm
05:39 11.2 °C 0.3 °C 1013.8 hPa NNW 11.3 km/h 8 km/h 47 % 0 mm
05:44 11.1 °C 0.5 °C 1013.8 hPa NNW 9.7 km/h 8.9 km/h 48 % 0 mm
05:49 11 °C 0.4 °C 1013.8 hPa NNW 9.3 km/h 7.2 km/h 48 % 0 mm
05:54 10.9 °C 0.3 °C 1013.8 hPa NNW 14.8 km/h 7.7 km/h 48 % 0 mm
05:59 10.8 °C 0.5 °C 1014.1 hPa NNW 11.1 km/h 6.1 km/h 49 % 0 mm
06:04 10.7 °C 0.7 °C 1014.1 hPa NNW 13 km/h 8.2 km/h 50 % 0 mm
06:09 10.6 °C 0.6 °C 1014.1 hPa North 9.3 km/h 7.7 km/h 50 % 0 mm
06:14 10.4 °C 0.7 °C 1014.1 hPa NNW 14.8 km/h 6.1 km/h 51 % 0 mm
06:19 10.4 °C 0.7 °C 1014.1 hPa NNW 11.1 km/h 9 km/h 51 % 0 mm
06:24 10.3 °C 0.8 °C 1014.1 hPa NNW 11.1 km/h 6.8 km/h 52 % 0 mm
06:29 10.3 °C 0.8 °C 1014.1 hPa North 12.9 km/h 6.4 km/h 52 % 0 mm
06:34 10.3 °C 0.9 °C 1014.1 hPa NNW 9.3 km/h 6.4 km/h 52 % 0 mm
06:39 10.4 °C 1.2 °C 1014.1 hPa NNW 5.6 km/h 4.5 km/h 53 % 0 mm
06:44 10.4 °C 1.3 °C 1014.1 hPa NNW 11.1 km/h 5.8 km/h 53 % 0 mm
06:49 10.5 °C 1.3 °C 1014.4 hPa NNW 9.3 km/h 6.4 km/h 53 % 0 mm
06:54 10.7 °C 1.2 °C 1014.4 hPa NNW 9.3 km/h 6.6 km/h 52 % 0 mm
06:59 10.8 °C 1.3 °C 1014.4 hPa NNW 14.8 km/h 8.7 km/h 52 % 0 mm
07:04 11.1 °C 1.3 °C 1014.4 hPa North 11.1 km/h 7.6 km/h 51 % 0 mm
07:09 11.2 °C 1.4 °C 1014.4 hPa North 11.1 km/h 7.7 km/h 51 % 0 mm
07:14 11.4 °C 1.7 °C 1014.4 hPa North 8 km/h 7.9 km/h 51 % 0 mm
07:19 11.7 °C 1.6 °C 1014.8 hPa North 11.1 km/h 7.7 km/h 50 % 0 mm
07:24 11.9 °C 1.8 °C 1014.8 hPa North 14.8 km/h 7.4 km/h 50 % 0 mm
07:29 12.1 °C 1.7 °C 1014.8 hPa NNW 16.7 km/h 5.8 km/h 49 % 0 mm
07:34 12.2 °C 1.8 °C 1014.4 hPa NNW 11.1 km/h 5.8 km/h 49 % 0 mm
07:39 12.3 °C 1.9 °C 1014.4 hPa North 13 km/h 5.8 km/h 49 % 0 mm
07:44 12.4 °C 2 °C 1014.4 hPa NNW 14.8 km/h 7.6 km/h 49 % 0 mm
07:49 12.5 °C 2.1 °C 1014.4 hPa North 11.1 km/h 9.2 km/h 49 % 0 mm
07:54 12.7 °C 2.2 °C 1014.4 hPa NNW 11.1 km/h 8.2 km/h 49 % 0 mm
07:59 12.9 °C 2.4 °C 1014.4 hPa North 14.8 km/h 7.9 km/h 49 % 0 mm
08:04 13.1 °C 2.6 °C 1014.4 hPa NNW 13 km/h 9.5 km/h 49 % 0 mm
08:09 13.4 °C 2.9 °C 1014.4 hPa NNW 11.1 km/h 6.1 km/h 49 % 0 mm
08:14 13.7 °C 2.8 °C 1014.4 hPa NNW 11.1 km/h 7.1 km/h 48 % 0 mm
08:19 14.1 °C 3.2 °C 1014.4 hPa NNW 11.1 km/h 8 km/h 48 % 0 mm
08:24 14.3 °C 2.8 °C 1014.4 hPa NNW 14.8 km/h 11.9 km/h 46 % 0 mm
08:29 14.6 °C 2.8 °C 1014.1 hPa North 14.8 km/h 8.9 km/h 45 % 0 mm
08:34 14.8 °C 2.6 °C 1014.4 hPa North 22.2 km/h 11.9 km/h 44 % 0 mm
08:39 15 °C 2.8 °C 1014.1 hPa NNW 14.8 km/h 6.6 km/h 44 % 0 mm
08:44 15.3 °C 3.1 °C 1014.1 hPa North 9.7 km/h 9.3 km/h 44 % 0 mm
08:49 15.2 °C 3.7 °C 1014.1 hPa North 14.5 km/h 9.3 km/h 46 % 0 mm
08:54 15.4 °C 2.6 °C 1014.1 hPa North 18.5 km/h 11.4 km/h 42 % 0 mm
08:59 15.6 °C 2.3 °C 1014.1 hPa North 11.1 km/h 10.6 km/h 41 % 0 mm
09:04 15.8 °C 2.6 °C 1014.1 hPa North 18.5 km/h 9.8 km/h 41 % 0 mm
09:09 16 °C 2.1 °C 1014.1 hPa North 24.1 km/h 15.1 km/h 39 % 0 mm
09:14 16.1 °C 1.8 °C 1013.8 hPa North 25.9 km/h 13.4 km/h 38 % 0 mm
09:19 16.4 °C 2.4 °C 1013.8 hPa North 16.7 km/h 10.9 km/h 39 % 0 mm
09:24 16.4 °C 2.4 °C 1013.8 hPa North 25.9 km/h 13.7 km/h 39 % 0 mm
09:29 16.6 °C 3.3 °C 1013.8 hPa North 13 km/h 10.6 km/h 41 % 0 mm
09:34 16.7 °C 3.4 °C 1013.8 hPa North 18.5 km/h 12.7 km/h 41 % 0 mm
09:39 16.8 °C 2.8 °C 1013.8 hPa North 18.5 km/h 14.5 km/h 39 % 0 mm
09:44 17.1 °C 3.4 °C 1013.4 hPa NNW 16.1 km/h 10.8 km/h 40 % 0 mm
09:49 17.1 °C 3.4 °C 1013.8 hPa NW 22.2 km/h 12.4 km/h 40 % 0 mm
09:54 17.2 °C 2.7 °C 1013.4 hPa NNW 18.5 km/h 16.4 km/h 38 % 0 mm
09:59 17.3 °C 2.4 °C 1013.4 hPa NNW 18.5 km/h 15.8 km/h 37 % 0 mm
10:04 17.6 °C 1.9 °C 1013.4 hPa NW 20.4 km/h 16.4 km/h 35 % 0 mm
10:09 17.8 °C 1.7 °C 1013.4 hPa North 25.9 km/h 16.1 km/h 34 % 0 mm
10:14 17.9 °C 2.6 °C 1013.4 hPa North 18.5 km/h 13.7 km/h 36 % 0 mm
10:19 18.1 °C 2 °C 1013.4 hPa North 24.1 km/h 21.2 km/h 34 % 0 mm
10:24 18.2 °C 2.1 °C 1013.4 hPa North 27.8 km/h 11.6 km/h 34 % 0 mm
10:29 18.3 °C 2.1 °C 1013.1 hPa North 25.9 km/h 14.8 km/h 34 % 0 mm
10:34 18.3 °C 2.1 °C 1013.1 hPa North 18.5 km/h 16.6 km/h 34 % 0 mm
10:39 18.1 °C 1.5 °C 1013.1 hPa NNW 24.1 km/h 18.7 km/h 33 % 0 mm
10:44 18.2 °C 2.1 °C 1013.1 hPa North 22.2 km/h 16.6 km/h 34 % 0 mm
10:49 18.2 °C 2.1 °C 1013.1 hPa NNW 18.5 km/h 10.6 km/h 34 % 0 mm
10:54 18.3 °C 1.8 °C 1013.1 hPa North 25.9 km/h 18 km/h 33 % 0 mm
10:59 18.5 °C 2.7 °C 1013.1 hPa North 18.5 km/h 14.3 km/h 35 % 0 mm
11:04 18.7 °C 1.6 °C 1012.8 hPa NNW 18.5 km/h 15.9 km/h 32 % 0 mm
11:09 18.6 °C 2.4 °C 1012.8 hPa North 18.5 km/h 9.3 km/h 34 % 0 mm
11:14 18.8 °C 1.7 °C 1012.8 hPa North 25.9 km/h 14.8 km/h 32 % 0 mm
11:19 19 °C 2.3 °C 1012.8 hPa NNW 20.9 km/h 13 km/h 33 % 0 mm
11:24 19 °C 1.5 °C 1012.8 hPa North 35.4 km/h 23.3 km/h 31 % 0 mm
11:29 18.8 °C 1.3 °C 1012.4 hPa North 25.9 km/h 15.1 km/h 31 % 0 mm
11:34 18.8 °C 1.8 °C 1012.4 hPa NNW 29.6 km/h 14.8 km/h 32 % 0 mm
11:39 19.2 °C 2.1 °C 1012.4 hPa NNW 35.2 km/h 23.2 km/h 32 % 0 mm
11:44 19.4 °C 2.3 °C 1012.4 hPa NW 16.7 km/h 16.6 km/h 32 % 0 mm
11:49 19.5 °C 2.3 °C 1012.1 hPa North 20.4 km/h 15.4 km/h 32 % 0 mm
11:54 19.8 °C 1.7 °C 1012.1 hPa NNW 24.1 km/h 20.1 km/h 30 % 0 mm
11:59 19.7 °C 2.1 °C 1012.1 hPa North 25.9 km/h 10.1 km/h 31 % 0 mm
12:04 19.8 °C 1.7 °C 1012.1 hPa NW 27.4 km/h 17.5 km/h 30 % 0 mm
12:09 19.8 °C 1.3 °C 1012.1 hPa NW 33.3 km/h 19.8 km/h 29 % 0 mm
12:14 20 °C 1.4 °C 1012.1 hPa NW 22.5 km/h 18.3 km/h 29 % 0 mm
12:19 20 °C 1.4 °C 1012.1 hPa North 25.9 km/h 11.7 km/h 29 % 0 mm
12:24 20.3 °C 2.2 °C 1011.7 hPa WNW 25.7 km/h 16.7 km/h 30 % 0 mm
12:29 20.7 °C 2.9 °C 1012.1 hPa NW 18.5 km/h 14.5 km/h 31 % 0 mm
12:34 20.6 °C 2.4 °C 1011.7 hPa North 27.8 km/h 19.6 km/h 30 % 0 mm
12:39 20.1 °C 1.4 °C 1011.7 hPa NW 18.5 km/h 18.2 km/h 29 % 0 mm
12:44 19.9 °C 1.3 °C 1011.7 hPa North 22.2 km/h 15.3 km/h 29 % 0 mm
12:49 19.9 °C 1.8 °C 1011.7 hPa WNW 14.8 km/h 12.4 km/h 30 % 0 mm
12:54 20 °C 3.2 °C 1011.7 hPa NW 20.4 km/h 15.6 km/h 33 % 0 mm
12:59 20.2 °C 2.5 °C 1011.7 hPa North 22.2 km/h 12.7 km/h 31 % 0 mm
13:04 20.4 °C 2.7 °C 1011.7 hPa NW 18.5 km/h 11.3 km/h 31 % 0 mm
13:09 20.3 °C 2.2 °C 1011.7 hPa WNW 18.5 km/h 11.6 km/h 30 % 0 mm
13:14 20.2 °C 2.1 °C 1011.4 hPa NW 16.7 km/h 11.3 km/h 30 % 0 mm
13:19 20.2 °C 2 °C 1011.4 hPa NW 16.7 km/h 6.3 km/h 30 % 0 mm
13:24 20.2 °C 3 °C 1011.4 hPa NW 14.8 km/h 7.7 km/h 32 % 0 mm
13:29 20.3 °C 3.1 °C 1011.4 hPa WNW 18.5 km/h 9.7 km/h 32 % 0 mm
13:34 20.4 °C 4.4 °C 1011.4 hPa WNW 13 km/h 13.4 km/h 35 % 0 mm
13:39 20.4 °C 3.1 °C 1011.1 hPa WNW 14.8 km/h 11.6 km/h 32 % 0 mm
13:44 20.3 °C 4.3 °C 1011.1 hPa North 14.8 km/h 10 km/h 35 % 0 mm
13:49 20.4 °C 3.6 °C 1011.1 hPa North 16.7 km/h 12.7 km/h 33 % 0 mm
13:54 20.4 °C 2.2 °C 1011.1 hPa North 9.3 km/h 1.3 km/h 30 % 0 mm
13:59 20.5 °C 3.2 °C 1011.1 hPa NW 11.1 km/h 6.6 km/h 32 % 0 mm
14:04 20.6 °C 2.4 °C 1010.7 hPa NW 9.3 km/h 5.1 km/h 30 % 0 mm
14:09 20.6 °C 2.4 °C 1010.7 hPa NW 13 km/h 7.7 km/h 30 % 0 mm
14:14 20.8 °C 3 °C 1011.1 hPa WNW 11.1 km/h 10.9 km/h 31 % 0 mm
14:19 20.7 °C 4.3 °C 1011.1 hPa WNW 9.3 km/h 8.2 km/h 34 % 0 mm
14:24 20.7 °C 2.9 °C 1011.1 hPa North 13 km/h 8.9 km/h 31 % 0 mm
14:29 20.6 °C 4.1 °C 1011.1 hPa WNW 12.9 km/h 8.9 km/h 34 % 0 mm
14:34 20.7 °C 3.8 °C 1011.1 hPa North 18.5 km/h 9.5 km/h 33 % 0 mm
14:39 20.5 °C 4.1 °C 1011.1 hPa West 14.8 km/h 13.2 km/h 34 % 0 mm
14:44 20 °C 8.3 °C 1011.1 hPa SSW 20.4 km/h 12.1 km/h 47 % 0 mm
14:49 19.7 °C 8.3 °C 1010.7 hPa SSW 17.7 km/h 14.8 km/h 48 % 0 mm
14:54 19.3 °C 8.3 °C 1010.7 hPa SSW 22.2 km/h 14.3 km/h 49 % 0 mm
14:59 19.3 °C 8.7 °C 1010.7 hPa SSW 20.4 km/h 14.5 km/h 50 % 0 mm
15:04 19.2 °C 9.3 °C 1010.7 hPa SSW 18.5 km/h 6 km/h 53 % 0 mm
15:09 19 °C 8.9 °C 1010.7 hPa SSW 18.5 km/h 6.4 km/h 52 % 0 mm
15:14 19.1 °C 9.3 °C 1010.4 hPa SSW 13 km/h 8.5 km/h 53 % 0 mm
15:19 19.2 °C 8.8 °C 1010.7 hPa SSW 22.2 km/h 11.1 km/h 51 % 0 mm
15:24 19.2 °C 9.1 °C 1010.4 hPa South 13 km/h 5.1 km/h 52 % 0 mm
15:29 19.1 °C 9 °C 1010.4 hPa South 14.8 km/h 10.6 km/h 52 % 0 mm
15:34 18.9 °C 8.8 °C 1010.4 hPa SW 16.7 km/h 9 km/h 52 % 0 mm
15:39 18.9 °C 9.4 °C 1010.4 hPa SSW 16.7 km/h 5.5 km/h 54 % 0 mm
15:44 18.7 °C 9.2 °C 1010.4 hPa SW 18.5 km/h 14 km/h 54 % 0 mm
15:49 18.3 °C 9.3 °C 1010.7 hPa SW 31.5 km/h 17.7 km/h 56 % 0 mm
15:54 18.1 °C 9.7 °C 1010.7 hPa North 19.3 km/h 15.9 km/h 58 % 0 mm
15:59 17.9 °C 9.2 °C 1010.7 hPa SW 16.7 km/h 14.2 km/h 57 % 0 mm
16:04 18.1 °C 9.7 °C 1010.7 hPa South 22.2 km/h 13.2 km/h 58 % 0 mm
16:09 17.9 °C 9.5 °C 1011.1 hPa SSW 22.2 km/h 16.6 km/h 58 % 0 mm
16:14 17.6 °C 9.5 °C 1011.1 hPa SSW 14.8 km/h 10.5 km/h 59 % 0 mm
16:19 17.7 °C 9.6 °C 1011.1 hPa SW 18.5 km/h 10.1 km/h 59 % 0 mm
16:24 17.4 °C 9.1 °C 1011.1 hPa SSW 25.9 km/h 12.7 km/h 58 % 0 mm
16:29 17.2 °C 8.8 °C 1011.4 hPa North 31.5 km/h 21.7 km/h 58 % 0 mm
16:34 16.8 °C 8.8 °C 1011.4 hPa SSW 29.6 km/h 15.4 km/h 59 % 0 mm
16:39 16.7 °C 8.7 °C 1011.4 hPa SSW 31.5 km/h 24.6 km/h 59 % 0 mm
16:44 16.6 °C 8.8 °C 1011.7 hPa SW 20.4 km/h 12.9 km/h 60 % 0 mm
16:49 16.4 °C 8.8 °C 1011.4 hPa SSW 18.5 km/h 12.2 km/h 61 % 0 mm
16:54 16.3 °C 8.7 °C 1011.4 hPa North 18.5 km/h 12.1 km/h 61 % 0 mm
16:59 16.2 °C 8.7 °C 1011.4 hPa SW 25.9 km/h 18 km/h 61 % 0 mm
17:04 16.2 °C 8.6 °C 1011.4 hPa North 22.5 km/h 16.6 km/h 61 % 0 mm
17:09 16 °C 8.5 °C 1011.4 hPa SSW 31.5 km/h 15.6 km/h 61 % 0 mm
17:14 16 °C 8.5 °C 1011.4 hPa SSW 22.2 km/h 17.5 km/h 61 % 0 mm
17:19 15.8 °C 8.6 °C 1011.4 hPa South 20.4 km/h 12.4 km/h 62 % 0 mm
17:24 15.8 °C 8.6 °C 1011.7 hPa SSW 22.2 km/h 14 km/h 62 % 0 mm
17:29 15.8 °C 8.6 °C 1011.7 hPa SSW 18.5 km/h 13.5 km/h 62 % 0 mm
17:34 15.7 °C 8.4 °C 1011.7 hPa SSW 18.5 km/h 13.7 km/h 62 % 0 mm
17:39 15.6 °C 8.3 °C 1011.7 hPa SSW 20.4 km/h 11.9 km/h 62 % 0 mm
17:44 15.6 °C 8.3 °C 1012.1 hPa North 18.5 km/h 15.3 km/h 62 % 0 mm
17:49 15.3 °C 8.3 °C 1012.1 hPa SW 18.5 km/h 12.6 km/h 63 % 0 mm
17:54 15.2 °C 8.2 °C 1012.1 hPa SW 17.7 km/h 14.6 km/h 63 % 0 mm
17:59 14.9 °C 8.2 °C 1012.1 hPa SSW 14.8 km/h 11.6 km/h 64 % 0 mm
18:04 14.8 °C 8.1 °C 1012.1 hPa SSW 16.7 km/h 12.7 km/h 64 % 0 mm
18:09 14.6 °C 7.8 °C 1012.1 hPa SW 20.4 km/h 14.6 km/h 64 % 0 mm
18:14 14.3 °C 7.8 °C 1012.1 hPa SSW 14.8 km/h 9.3 km/h 65 % 0 mm
18:19 14.1 °C 7.8 °C 1012.1 hPa SSW 13 km/h 9.5 km/h 66 % 0 mm
18:24 13.8 °C 7.6 °C 1012.4 hPa SSW 14.8 km/h 10.6 km/h 66 % 0 mm
18:29 13.7 °C 7.7 °C 1012.4 hPa SSW 18.5 km/h 12.1 km/h 67 % 0 mm
18:34 13.4 °C 7.4 °C 1012.4 hPa SSW 18.5 km/h 8.9 km/h 67 % 0 mm
18:39 13.3 °C 7.3 °C 1012.4 hPa North 22.2 km/h 14.8 km/h 67 % 0 mm
18:44 13.2 °C 7.4 °C 1012.8 hPa SSW 11.1 km/h 7.2 km/h 68 % 0 mm
18:49 13.1 °C 7.3 °C 1012.8 hPa SSW 14.8 km/h 7.2 km/h 68 % 0 mm
18:54 13 °C 7.4 °C 1012.8 hPa SSW 14.8 km/h 13.7 km/h 69 % 0 mm
18:59 12.8 °C 7.3 °C 1012.8 hPa SSW 11.3 km/h 6 km/h 69 % 0 mm
19:04 12.7 °C 7.4 °C 1012.8 hPa SSW 16.7 km/h 5.3 km/h 70 % 0 mm
19:09 12.6 °C 7.4 °C 1013.1 hPa SSW 5.6 km/h 4.8 km/h 71 % 0 mm
19:14 12.4 °C 7.5 °C 1013.1 hPa North 11.1 km/h 8.4 km/h 72 % 0 mm
19:19 12.3 °C 7.6 °C 1013.1 hPa SSW 16.7 km/h 14.6 km/h 73 % 0 mm
19:24 12.2 °C 7.5 °C 1013.4 hPa SSW 7.4 km/h 5.1 km/h 73 % 0 mm
19:29 12.1 °C 7.3 °C 1013.4 hPa SSW 7.4 km/h 2.7 km/h 73 % 0 mm
19:34 11.8 °C 7.2 °C 1013.4 hPa SSW 5.6 km/h 2.1 km/h 73 % 0 mm
19:39 11.6 °C 7.1 °C 1013.4 hPa SSW 5.6 km/h 4.2 km/h 74 % 0 mm
19:44 11.3 °C 6.8 °C 1013.4 hPa SSW 5.6 km/h 2.6 km/h 74 % 0 mm
19:49 11 °C 6.7 °C 1013.4 hPa SSW 5.6 km/h 2.9 km/h 75 % 0 mm
19:54 10.8 °C 6.7 °C 1013.8 hPa North 3.7 km/h 3.5 km/h 76 % 0 mm
19:59 10.6 °C 6.7 °C 1013.8 hPa SSW 5.6 km/h 3.2 km/h 77 % 0 mm
20:04 10.4 °C 6.8 °C 1013.8 hPa North 5.6 km/h 1 km/h 78 % 0 mm
20:09 10.2 °C 6.7 °C 1013.8 hPa SSW 5.6 km/h 2.9 km/h 79 % 0 mm
20:14 10.1 °C 7 °C 1014.1 hPa SSW 3.7 km/h 2.1 km/h 81 % 0 mm
20:19 10.1 °C 6.9 °C 1014.1 hPa SSW 5.6 km/h 3.1 km/h 81 % 0 mm
20:24 10 °C 6.9 °C 1014.1 hPa SSW 5.6 km/h 2.6 km/h 81 % 0 mm
20:29 9.9 °C 6.8 °C 1014.1 hPa SSW 5.6 km/h 2.9 km/h 81 % 0 mm
20:34 9.8 °C 6.9 °C 1014.1 hPa SSW 5.6 km/h 2.9 km/h 82 % 0 mm
20:39 9.8 °C 6.9 °C 1014.1 hPa SSW 3.7 km/h   82 % 0 mm
20:44 9.8 °C 6.8 °C 1014.1 hPa SSW 5.6 km/h 1.3 km/h 82 % 0 mm
20:49 9.7 °C 6.8 °C 1014.1 hPa SSW 3.7 km/h 0.2 km/h 82 % 0 mm
20:54 9.6 °C 6.7 °C 1014.1 hPa Calm     82 % 0 mm
20:59 9.4 °C 6.5 °C 1014.1 hPa SSW 5.6 km/h 3.1 km/h 82 % 0 mm
21:04 9.2 °C 6.3 °C 1014.1 hPa SSW 1.9 km/h   82 % 0 mm
21:09 8.9 °C 6.2 °C 1014.1 hPa Calm     83 % 0 mm
21:14 8.8 °C 6.1 °C 1014.1 hPa Calm     83 % 0 mm
21:19 8.7 °C 6.1 °C 1014.1 hPa North 3.7 km/h 2.6 km/h 84 % 0 mm
21:24 8.6 °C 6.2 °C 1014.1 hPa SSW 5.6 km/h 4.3 km/h 85 % 0 mm
21:29 8.6 °C 6.3 °C 1014.1 hPa North 6.4 km/h 4 km/h 86 % 0 mm
21:34 8.5 °C 6.3 °C 1014.1 hPa North 5.6 km/h 2.4 km/h 86 % 0 mm
21:39 8.5 °C 6.3 °C 1014.1 hPa North 5.6 km/h 2.6 km/h 86 % 0 mm
21:44 8.4 °C 6.2 °C 1014.4 hPa Calm     86 % 0 mm
21:49 8.3 °C 6.1 °C 1014.4 hPa SSW 3.7 km/h 2.9 km/h 86 % 0 mm
21:54 8.1 °C 5.8 °C 1014.1 hPa SSW 3.7 km/h 1.4 km/h 86 % 0 mm
21:59 7.8 °C 5.6 °C 1014.1 hPa Calm     86 % 0 mm
22:04 7.6 °C 5.4 °C 1014.1 hPa SSW 1.9 km/h 0.8 km/h 86 % 0 mm
22:09 7.5 °C 5.5 °C 1014.1 hPa Calm     87 % 0 mm
22:14 7.4 °C 5.4 °C 1014.1 hPa Calm     87 % 0 mm
22:19 7.3 °C 5.3 °C 1014.4 hPa Calm     87 % 0 mm
22:24 7.1 °C 5.1 °C 1014.4 hPa Calm     87 % 0 mm
22:29 6.9 °C 5.1 °C 1014.4 hPa North 1.6 km/h 0.3 km/h 88 % 0 mm
22:34 6.8 °C 4.9 °C 1014.4 hPa SSW 3.7 km/h 2.1 km/h 88 % 0 mm
22:39 6.8 °C 5.2 °C 1014.4 hPa North 1.6 km/h 0.3 km/h 89 % 0 mm
22:44 6.7 °C 4.8 °C 1014.4 hPa SSW 3.7 km/h   88 % 0 mm
22:49 6.4 °C 4.6 °C 1014.4 hPa Calm     88 % 0 mm
22:54 6.4 °C 4.7 °C 1014.4 hPa Calm     89 % 0 mm
22:59 6.4 °C 4.7 °C 1014.4 hPa Calm     89 % 0 mm
23:04 6.3 °C 4.7 °C 1014.1 hPa Calm     89 % 0 mm
23:09 6.3 °C 4.8 °C 1014.1 hPa SSW 3.7 km/h   90 % 0 mm
23:14 6.2 °C 4.5 °C 1014.4 hPa Calm     89 % 0 mm
23:19 6.2 °C 4.7 °C 1014.4 hPa North 1.9 km/h 1.3 km/h 90 % 0 mm
23:24 6 °C 4.3 °C 1014.4 hPa Calm     89 % 0 mm
23:29 6 °C 4.5 °C 1014.1 hPa Calm     90 % 0 mm
23:34 5.9 °C 4.4 °C 1014.1 hPa Calm     90 % 0 mm
23:39 5.9 °C 4.6 °C 1014.1 hPa SSW 1.9 km/h   91 % 0 mm
23:44 5.9 °C 4.6 °C 1014.1 hPa Calm     91 % 0 mm
23:49 5.9 °C 4.6 °C 1014.1 hPa Calm     91 % 0 mm
23:54 5.8 °C 4.5 °C 1014.1 hPa Calm     91 % 0 mm
23:59 5.7 °C 4.4 °C 1014.1 hPa Calm     91 % 0 mm
Ararat Weather
Compliments of Weather Underground - 2.25 mb
Click here to send mail.


ABOUT

Live weather data from Ararat, Victoria, Australia, 3377
Data uploaded from Cumulus every 5 minutes to Weather Underground.
This site then downloads the raw data for formatting and display.
Metric and imperial data can be displayed. Graphs and historical data available.
Includes Sun and Moon times and rain image live from BOM.

Check out Ararat Weather on Facebook, Twitter and Google +

Help support ongoing costs by checking out the ads





Follow @AraratWeather